Torna al catalogo

OPS 4682 DEB

AttivoPO
NORAD 55262·DEBRIS·🇺🇸 United States

Lanciato Apr 3, 1965 da Vandenberg Space Force Base

Loading…

Prossimi Passaggi (prossime 24 ore)

TLE

AggiornatoSource: Space-Track

Epoca: Sep 11, 2026, 07:19 UTC

1 55262U 65027HN  26254.30527802  .00000237  00000-0  80428-3 0  9993
2 55262  90.2553  13.5432 0028277 267.8960  91.8922 12.96352811514063

Traccia OPS 4682 DEB in tempo reale con AllMySat

Download on the App Store